Time,TemperatureF,DewpointF,PressureIn,WindDirection,WindDirectionDegrees,WindSpeedMPH,WindSpeedGustMPH,Humidity,HourlyPrecipIn,Conditions,Clouds,dailyrainin,SoftwareType,DateUTC
2013-03-06 00:02:00,44.2,39.1,29.60,North,351,0.0,1.0,82,0.00,OVC,OVC,0.00,WeatherDisplay:10.37,2013-03-06 08:02:00,
2013-03-06 00:12:00,44.1,38.9,29.59,NNE,18,0.0,0.0,82,0.00,CLR,CLR,0.00,WeatherDisplay:10.37,2013-03-06 08:12:00,
2013-03-06 00:22:00,43.9,38.7,29.59,NNE,25,1.0,2.0,82,0.00,CLR,CLR,0.00,WeatherDisplay:10.37,2013-03-06 08:22:00,
2013-03-06 00:32:00,43.7,38.6,29.59,NNE,13,1.0,2.0,82,0.00,CLR,CLR,0.00,WeatherDisplay:10.37,2013-03-06 08:32:00,
2013-03-06 00:42:00,43.3,38.5,29.59,NNE,21,1.0,3.0,83,0.00,CLR,CLR,0.00,WeatherDisplay:10.37,2013-03-06 08:42:00,
2013-03-06 00:52:00,43.2,38.3,29.58,NNE,27,1.0,2.0,83,0.00,CLR,CLR,0.00,WeatherDisplay:10.37,2013-03-06 08:52:00,
2013-03-06 01:02:00,43.0,38.5,29.58,NNE,18,1.0,2.0,84,0.00,CLR,CLR,0.00,WeatherDisplay:10.37,2013-03-06 09:02:00,
2013-03-06 01:07:00,43.0,38.5,29.57,NNE,22,1.0,2.0,84,0.00,CLR,CLR,0.00,WeatherDisplay:10.37,2013-03-06 09:07:00,
2013-03-06 01:12:00,43.0,38.5,29.57,NNE,30,0.0,1.0,84,0.00,CLR,CLR,0.00,WeatherDisplay:10.37,2013-03-06 09:12:00,
2013-03-06 01:22:00,42.8,38.3,29.57,North,353,0.0,0.0,84,0.00,CLR,CLR,0.00,WeatherDisplay:10.37,2013-03-06 09:22:00,
2013-03-06 01:32:00,42.8,38.3,29.57,North,351,0.0,0.0,84,0.00,CLR,CLR,0.00,WeatherDisplay:10.37,2013-03-06 09:32:00,
2013-03-06 01:42:00,42.6,38.1,29.57,North,2,0.0,2.0,84,0.00,CLR,CLR,0.00,WeatherDisplay:10.37,2013-03-06 09:42:00,
2013-03-06 01:52:00,42.6,38.1,29.56,NE,54,2.0,3.0,84,0.00,CLR,CLR,0.00,WeatherDisplay:10.37,2013-03-06 09:52:00,
2013-03-06 02:02:00,42.4,38.2,29.56,ENE,57,2.0,4.0,85,0.00,CLR,CLR,0.00,WeatherDisplay:10.37,2013-03-06 10:02:00,
2013-03-06 02:07:00,42.3,38.1,29.55,NE,54,2.0,3.0,85,0.00,OVC,OVC,0.00,WeatherDisplay:10.37,2013-03-06 10:07:00,
2013-03-06 02:12:00,42.4,38.2,29.55,NE,50,2.0,5.0,85,0.00,OVC,OVC,0.00,WeatherDisplay:10.37,2013-03-06 10:12:00,
2013-03-06 02:22:00,42.3,38.4,29.55,NE,52,2.0,3.0,86,0.00,OVC,OVC,0.00,WeatherDisplay:10.37,2013-03-06 10:22:00,
2013-03-06 02:32:00,42.4,38.5,29.54,NE,47,2.0,3.0,86,0.00,OVC,OVC,0.00,WeatherDisplay:10.37,2013-03-06 10:32:00,
2013-03-06 02:42:00,42.4,38.5,29.54,North,10,1.0,2.0,86,0.00,OVC,OVC,0.00,WeatherDisplay:10.37,2013-03-06 10:42:00,
2013-03-06 02:52:00,42.4,38.2,29.52,NE,53,1.0,3.0,85,0.00,OVC,OVC,0.00,WeatherDisplay:10.37,2013-03-06 10:52:00,
2013-03-06 02:58:00,42.4,38.2,29.52,NE,45,1.0,2.0,85,0.00,OVC,OVC,0.00,WeatherDisplay:10.37,2013-03-06 10:58:00,
2013-03-06 03:07:00,42.3,38.1,29.51,NNE,27,1.0,2.0,85,0.00,OVC,OVC,0.00,WeatherDisplay:10.37,2013-03-06 11:07:00,
2013-03-06 03:12:00,42.3,38.4,29.51,NNE,22,1.0,2.0,86,0.00,OVC,OVC,0.00,WeatherDisplay:10.37,2013-03-06 11:12:00,
2013-03-06 03:22:00,41.9,37.7,29.51,NE,35,2.0,3.0,85,0.00,OVC,OVC,0.00,WeatherDisplay:10.37,2013-03-06 11:22:00,
2013-03-06 03:27:00,41.9,38.0,29.51,NE,34,2.0,2.0,86,0.00,OVC,OVC,0.00,WeatherDisplay:10.37,2013-03-06 11:27:00,
2013-03-06 03:32:00,41.9,38.0,29.51,NNE,27,1.0,2.0,86,0.00,OVC,OVC,0.00,WeatherDisplay:10.37,2013-03-06 11:32:00,
2013-03-06 03:42:00,42.3,38.4,29.51,NE,48,0.0,2.0,86,0.00,OVC,OVC,0.00,WeatherDisplay:10.37,2013-03-06 11:42:00,
2013-03-06 03:52:00,42.1,37.9,29.51,North,9,1.0,0.0,85,0.00,OVC,OVC,0.00,WeatherDisplay:10.37,2013-03-06 11:52:00,
2013-03-06 03:57:00,42.1,37.9,29.51,North,9,0.0,1.0,85,0.00,OVC,OVC,0.00,WeatherDisplay:10.37,2013-03-06 11:57:00,
2013-03-06 04:07:00,41.9,37.7,29.50,NNW,329,0.0,0.0,85,0.00,OVC,OVC,0.00,WeatherDisplay:10.37,2013-03-06 12:07:00,
2013-03-06 04:12:00,41.9,37.7,29.50,NW,326,0.0,2.0,85,0.00,OVC,OVC,0.00,WeatherDisplay:10.37,2013-03-06 12:12:00,
2013-03-06 04:22:00,41.7,37.5,29.50,NNW,339,0.0,1.0,85,0.00,OVC,OVC,0.00,WeatherDisplay:10.37,2013-03-06 12:22:00,
2013-03-06 04:32:00,41.7,37.5,29.50,North,11,0.0,1.0,85,0.00,OVC,OVC,0.00,WeatherDisplay:10.37,2013-03-06 12:32:00,
2013-03-06 04:37:00,41.7,37.5,29.50,NNE,16,0.0,2.0,85,0.00,OVC,OVC,0.00,WeatherDisplay:10.37,2013-03-06 12:37:00,
2013-03-06 04:47:00,41.5,37.7,29.49,NNE,31,1.0,2.0,86,0.00,OVC,OVC,0.00,WeatherDisplay:10.37,2013-03-06 12:47:00,
2013-03-06 04:52:00,41.5,37.7,29.49,NE,37,2.0,3.0,86,0.00,OVC,OVC,0.00,WeatherDisplay:10.37,2013-03-06 12:52:00,
2013-03-06 04:57:00,41.5,37.7,29.49,NE,41,2.0,3.0,86,0.00,OVC,OVC,0.00,WeatherDisplay:10.37,2013-03-06 12:57:00,
2013-03-06 05:02:00,41.7,38.1,29.49,NNE,33,1.0,2.0,87,0.00,OVC,OVC,0.00,WeatherDisplay:10.37,2013-03-06 13:02:00,
2013-03-06 05:07:00,41.7,38.1,29.50,NNE,31,1.0,3.0,87,0.00,OVC,OVC,0.00,WeatherDisplay:10.37,2013-03-06 13:07:00,
2013-03-06 05:12:00,41.7,38.1,29.50,NE,50,2.0,4.0,87,0.00,OVC,OVC,0.00,WeatherDisplay:10.37,2013-03-06 13:12:00,
2013-03-06 05:22:00,41.7,38.1,29.50,NNE,13,2.0,3.0,87,0.00,OVC,OVC,0.00,WeatherDisplay:10.37,2013-03-06 13:22:00,
2013-03-06 05:27:00,41.7,38.1,29.48,NNE,23,2.0,3.0,87,0.00,OVC,OVC,0.00,WeatherDisplay:10.37,2013-03-06 13:27:00,
2013-03-06 05:32:00,41.7,38.1,29.48,NE,40,2.0,3.0,87,0.00,OVC,OVC,0.00,WeatherDisplay:10.37,2013-03-06 13:32:00,
2013-03-06 05:37:00,41.7,38.1,29.48,NE,38,2.0,2.0,87,0.00,OVC,OVC,0.00,WeatherDisplay:10.37,2013-03-06 13:37:00,
2013-03-06 05:42:00,41.7,38.1,29.48,NE,34,2.0,5.0,87,0.00,OVC,OVC,0.00,WeatherDisplay:10.37,2013-03-06 13:42:00,
2013-03-06 05:52:00,41.7,38.1,29.47,NE,50,2.0,3.0,87,0.00,OVC,OVC,0.00,WeatherDisplay:10.37,2013-03-06 13:52:00,
2013-03-06 06:02:00,41.9,38.3,29.47,NE,50,2.0,3.0,87,0.00,OVC,OVC,0.00,WeatherDisplay:10.37,2013-03-06 14:02:00,
2013-03-06 06:08:00,41.9,38.3,29.47,ENE,59,2.0,3.0,87,0.00,OVC,OVC,0.00,WeatherDisplay:10.37,2013-03-06 14:08:00,
2013-03-06 06:17:00,41.9,38.3,29.47,NE,56,1.0,3.0,87,0.00,OVC,OVC,0.00,WeatherDisplay:10.37,2013-03-06 14:17:00,
2013-03-06 06:22:00,42.1,38.5,29.47,NE,43,1.0,2.0,87,0.00,OVC,OVC,0.00,WeatherDisplay:10.37,2013-03-06 14:22:00,
2013-03-06 06:32:00,42.1,38.5,29.46,NE,39,1.0,2.0,87,0.00,OVC,OVC,0.00,WeatherDisplay:10.37,2013-03-06 14:32:00,
2013-03-06 06:37:00,42.1,38.5,29.46,NE,38,1.0,3.0,87,0.00,OVC,OVC,0.00,WeatherDisplay:10.37,2013-03-06 14:37:00,
2013-03-06 06:42:00,42.3,38.7,29.46,NNE,20,2.0,4.0,87,0.00,OVC,OVC,0.00,WeatherDisplay:10.37,2013-03-06 14:42:00,
2013-03-06 06:52:00,42.4,38.8,29.46,NE,52,1.0,3.0,87,0.00,OVC,OVC,0.00,WeatherDisplay:10.37,2013-03-06 14:52:00,
2013-03-06 07:02:00,42.4,38.8,29.46,ENE,61,2.0,3.0,87,0.00,OVC,OVC,0.00,WeatherDisplay:10.37,2013-03-06 15:02:00,
2013-03-06 07:08:00,42.4,38.8,29.45,ENE,71,2.0,4.0,87,0.00,OVC,OVC,0.00,WeatherDisplay:10.37,2013-03-06 15:08:00,
2013-03-06 07:17:00,42.6,38.7,29.45,NE,50,2.0,5.0,86,0.00,OVC,OVC,0.00,WeatherDisplay:10.37,2013-03-06 15:17:00,
2013-03-06 07:22:00,42.6,38.7,29.45,NE,39,2.0,3.0,86,0.00,OVC,OVC,0.00,WeatherDisplay:10.37,2013-03-06 15:22:00,
2013-03-06 07:32:00,42.8,38.9,29.46,NE,41,2.0,6.0,86,0.00,OVC,OVC,0.00,WeatherDisplay:10.37,2013-03-06 15:32:00,
2013-03-06 07:42:00,42.8,38.9,29.46,NE,39,3.0,5.0,86,0.00,OVC,OVC,0.00,WeatherDisplay:10.37,2013-03-06 15:42:00,
2013-03-06 07:52:00,42.8,38.6,29.47,NNE,33,3.0,6.0,85,0.00,OVC,OVC,0.00,WeatherDisplay:10.37,2013-03-06 15:52:00,
2013-03-06 08:02:00,43.0,38.8,29.47,NE,46,3.0,5.0,85,0.00,OVC,OVC,0.00,WeatherDisplay:10.37,2013-03-06 16:02:00,
2013-03-06 08:08:00,43.0,38.8,29.47,NE,49,2.0,6.0,85,0.00,BKN,BKN,0.00,WeatherDisplay:10.37,2013-03-06 16:08:00,
2013-03-06 08:17:00,43.2,39.0,29.47,NNE,12,2.0,3.0,85,0.00,BKN,BKN,0.00,WeatherDisplay:10.37,2013-03-06 16:17:00,
2013-03-06 08:22:00,43.3,39.1,29.47,NNE,24,2.0,3.0,85,0.00,BKN,BKN,0.00,WeatherDisplay:10.37,2013-03-06 16:22:00,
2013-03-06 08:32:00,43.5,39.3,29.46,NE,48,2.0,7.0,85,0.00,BKN,BKN,0.00,WeatherDisplay:10.37,2013-03-06 16:32:00,
2013-03-06 08:42:00,43.7,39.2,29.46,NNE,33,3.0,5.0,84,0.00,BKN,BKN,0.00,WeatherDisplay:10.37,2013-03-06 16:42:00,
2013-03-06 08:52:00,43.7,39.2,29.47,NE,37,3.0,6.0,84,0.00,BKN,BKN,0.00,WeatherDisplay:10.37,2013-03-06 16:52:00,
2013-03-06 08:57:00,43.7,38.9,29.47,NNE,23,2.0,3.0,83,0.00,BKN,BKN,0.00,WeatherDisplay:10.37,2013-03-06 16:57:00,
2013-03-06 09:08:00,44.1,39.5,29.47,North,1,1.0,2.0,84,0.00,OVC,OVC,0.00,WeatherDisplay:10.37,2013-03-06 17:08:00,
2013-03-06 09:17:00,44.2,39.7,29.47,NNE,24,1.0,4.0,84,0.00,OVC,OVC,0.00,WeatherDisplay:10.37,2013-03-06 17:17:00,
2013-03-06 09:22:00,44.2,39.4,29.47,NNE,25,2.0,5.0,83,0.00,OVC,OVC,0.00,WeatherDisplay:10.37,2013-03-06 17:22:00,
2013-03-06 09:32:00,44.4,39.6,29.47,NNE,31,2.0,3.0,83,0.00,OVC,OVC,0.00,WeatherDisplay:10.37,2013-03-06 17:32:00,
2013-03-06 09:37:00,44.4,39.6,29.47,NE,40,2.0,6.0,83,0.00,OVC,OVC,0.00,WeatherDisplay:10.37,2013-03-06 17:37:00,
2013-03-06 09:42:00,44.4,39.6,29.47,NE,43,2.0,3.0,83,0.00,OVC,OVC,0.00,WeatherDisplay:10.37,2013-03-06 17:42:00,
2013-03-06 09:52:00,44.6,39.8,29.47,NNE,28,1.0,2.0,83,0.00,OVC,OVC,0.00,WeatherDisplay:10.37,2013-03-06 17:52:00,
2013-03-06 10:02:00,44.8,39.9,29.47,NE,37,2.0,6.0,83,0.00,OVC,OVC,0.00,WeatherDisplay:10.37,2013-03-06 18:02:00,
2013-03-06 10:07:00,45.0,40.4,29.48,NNE,23,2.0,3.0,84,0.00,-RA,-RA,0.00,WeatherDisplay:10.37,2013-03-06 18:07:00,
2013-03-06 10:17:00,45.0,40.4,29.48,NNE,32,1.0,3.0,84,0.00,-RA,-RA,0.00,WeatherDisplay:10.37,2013-03-06 18:17:00,
2013-03-06 10:22:00,45.0,40.4,29.48,NNE,19,2.0,5.0,84,0.00,-RA,-RA,0.00,WeatherDisplay:10.37,2013-03-06 18:22:00,
2013-03-06 10:32:00,45.0,40.4,29.48,North,5,1.0,2.0,84,0.00,-RA,-RA,0.00,WeatherDisplay:10.37,2013-03-06 18:32:00,
2013-03-06 10:42:00,45.1,40.9,29.48,NNE,30,2.0,3.0,85,0.00,-RA,-RA,0.00,WeatherDisplay:10.37,2013-03-06 18:42:00,
2013-03-06 10:52:00,45.1,40.9,29.49,NNE,27,2.0,3.0,85,0.00,-RA,-RA,0.00,WeatherDisplay:10.37,2013-03-06 18:52:00,
2013-03-06 11:02:00,45.1,41.2,29.49,North,359,2.0,5.0,86,0.00,-RA,-RA,0.00,WeatherDisplay:10.37,2013-03-06 19:02:00,
2013-03-06 11:08:00,45.3,41.4,29.50,North,354,2.0,3.0,86,0.00,-RA,-RA,0.00,WeatherDisplay:10.37,2013-03-06 19:08:00,
2013-03-06 11:17:00,45.0,40.7,29.50,NE,34,2.0,7.0,85,0.00,-RA,-RA,0.00,WeatherDisplay:10.37,2013-03-06 19:17:00,
2013-03-06 11:22:00,45.0,41.0,29.50,ENE,63,2.0,5.0,86,0.00,-RA,-RA,0.00,WeatherDisplay:10.37,2013-03-06 19:22:00,
2013-03-06 11:32:00,45.1,41.2,29.50,NNE,27,2.0,5.0,86,0.00,-RA,-RA,0.00,WeatherDisplay:10.37,2013-03-06 19:32:00,
2013-03-06 11:42:00,45.1,41.2,29.50,NNE,33,3.0,6.0,86,0.00,-RA,-RA,0.00,WeatherDisplay:10.37,2013-03-06 19:42:00,
2013-03-06 11:52:00,45.1,41.2,29.50,NNE,16,2.0,5.0,86,0.00,-RA,-RA,0.00,WeatherDisplay:10.37,2013-03-06 19:52:00,
2013-03-06 12:02:00,45.1,41.2,29.50,NNE,33,2.0,5.0,86,0.03,-RA,-RA,0.03,WeatherDisplay:10.37,2013-03-06 20:02:00,
2013-03-06 12:08:00,45.1,41.2,29.50,East,86,2.0,2.0,86,0.00,-RA,-RA,0.03,WeatherDisplay:10.37,2013-03-06 20:08:00,
2013-03-06 12:17:00,45.3,41.7,29.50,ESE,121,1.0,3.0,87,0.00,-RA,-RA,0.03,WeatherDisplay:10.37,2013-03-06 20:17:00,
2013-03-06 12:22:00,45.3,41.7,29.50,NNE,16,2.0,3.0,87,0.00,-RA,-RA,0.03,WeatherDisplay:10.37,2013-03-06 20:22:00,
2013-03-06 12:32:00,45.3,41.7,29.51,NNE,25,2.0,2.0,87,0.00,-RA,-RA,0.03,WeatherDisplay:10.37,2013-03-06 20:32:00,
2013-03-06 12:42:00,45.3,41.7,29.51,NE,51,2.0,3.0,87,0.00,-RA,-RA,0.03,WeatherDisplay:10.37,2013-03-06 20:42:00,
2013-03-06 12:52:00,45.5,41.9,29.51,NNE,13,2.0,2.0,87,0.00,-RA,-RA,0.06,WeatherDisplay:10.37,2013-03-06 20:52:00,
2013-03-06 13:02:00,45.7,42.0,29.51,NE,42,1.0,3.0,87,0.00,-RA,-RA,0.06,WeatherDisplay:10.37,2013-03-06 21:02:00,
2013-03-06 13:08:00,45.9,42.2,29.52,NE,44,1.0,1.0,87,0.00,-RA,-RA,0.06,WeatherDisplay:10.37,2013-03-06 21:08:00,
2013-03-06 13:17:00,45.9,42.2,29.52,NW,310,1.0,3.0,87,0.00,-RA,-RA,0.06,WeatherDisplay:10.37,2013-03-06 21:17:00,
2013-03-06 13:22:00,46.0,42.1,29.52,NW,312,0.0,1.0,86,0.00,-RA,-RA,0.06,WeatherDisplay:10.37,2013-03-06 21:22:00,
2013-03-06 13:32:00,46.0,42.1,29.53,NNW,333,0.0,3.0,86,0.00,-RA,-RA,0.08,WeatherDisplay:10.37,2013-03-06 21:32:00,
2013-03-06 13:42:00,46.0,42.1,29.53,NNW,347,0.0,1.0,86,0.00,-RA,-RA,0.08,WeatherDisplay:10.37,2013-03-06 21:42:00,
2013-03-06 13:52:00,46.2,42.3,29.54,NW,311,0.0,1.0,86,0.03,-RA,-RA,0.11,WeatherDisplay:10.37,2013-03-06 21:52:00,
2013-03-06 14:02:00,46.2,42.3,29.54,North,355,0.0,2.0,86,0.00,-RA,-RA,0.11,WeatherDisplay:10.37,2013-03-06 22:02:00,
2013-03-06 14:08:00,46.0,42.1,29.54,NNE,12,1.0,2.0,86,0.00,-RA,-RA,0.11,WeatherDisplay:10.37,2013-03-06 22:08:00,
2013-03-06 14:17:00,46.0,42.1,29.54,North,6,1.0,2.0,86,0.03,-RA,-RA,0.14,WeatherDisplay:10.37,2013-03-06 22:17:00,
2013-03-06 14:22:00,45.9,41.9,29.54,NE,42,0.0,1.0,86,0.00,-RA,-RA,0.14,WeatherDisplay:10.37,2013-03-06 22:22:00,
2013-03-06 14:32:00,45.9,41.9,29.55,NNE,26,1.0,2.0,86,0.00,-RA,-RA,0.14,WeatherDisplay:10.37,2013-03-06 22:32:00,
2013-03-06 14:42:00,46.2,42.3,29.55,NW,326,1.0,1.0,86,0.00,-RA,-RA,0.14,WeatherDisplay:10.37,2013-03-06 22:42:00,
2013-03-06 14:52:00,46.4,42.4,29.55,SW,235,0.0,1.0,86,0.00,-RA,-RA,0.14,WeatherDisplay:10.37,2013-03-06 22:52:00,
2013-03-06 15:02:00,46.6,42.6,29.55,WNW,296,1.0,3.0,86,0.00,-RA,-RA,0.14,WeatherDisplay:10.37,2013-03-06 23:02:00,
2013-03-06 15:08:00,46.6,42.6,29.57,NW,324,1.0,3.0,86,0.00,-RA,-RA,0.17,WeatherDisplay:10.37,2013-03-06 23:08:00,
2013-03-06 15:17:00,46.6,42.3,29.57,NNW,341,1.0,2.0,85,0.00,-RA,-RA,0.17,WeatherDisplay:10.37,2013-03-06 23:17:00,
2013-03-06 15:22:00,46.6,42.3,29.57,WNW,283,0.0,3.0,85,0.00,-RA,-RA,0.17,WeatherDisplay:10.37,2013-03-06 23:22:00,
2013-03-06 15:32:00,46.6,42.3,29.57,West,261,0.0,1.0,85,0.00,-RA,-RA,0.17,WeatherDisplay:10.37,2013-03-06 23:32:00,
2013-03-06 15:42:00,46.6,42.3,29.57,West,263,0.0,0.0,85,0.00,-RA,-RA,0.17,WeatherDisplay:10.37,2013-03-06 23:42:00,
2013-03-06 15:52:00,46.6,42.0,29.58,SW,215,0.0,0.0,84,0.00,-RA,-RA,0.17,WeatherDisplay:10.37,2013-03-06 23:52:00,
2013-03-06 15:57:00,46.6,42.3,29.58,South,174,0.0,2.0,85,0.00,-RA,-RA,0.17,WeatherDisplay:10.37,2013-03-06 23:57:00,
2013-03-06 16:08:00,46.4,42.1,29.59,SSW,203,0.0,1.0,85,0.03,-RA,-RA,0.19,WeatherDisplay:10.37,2013-03-07 00:08:00,
2013-03-06 16:17:00,46.4,42.1,29.59,SSW,193,0.0,1.0,85,0.00,-RA,-RA,0.19,WeatherDisplay:10.37,2013-03-07 00:17:00,
2013-03-06 16:22:00,46.2,42.0,29.59,SSW,208,0.0,1.0,85,0.00,-RA,-RA,0.19,WeatherDisplay:10.37,2013-03-07 00:22:00,
2013-03-06 16:32:00,46.2,42.0,29.59,SSE,155,0.0,0.0,85,0.00,-RA,-RA,0.19,WeatherDisplay:10.37,2013-03-07 00:32:00,
2013-03-06 16:37:00,46.2,42.0,29.59,South,174,0.0,1.0,85,0.00,-RA,-RA,0.19,WeatherDisplay:10.37,2013-03-07 00:37:00,
2013-03-06 16:42:00,46.0,41.8,29.59,SSW,206,0.0,0.0,85,0.03,-RA,-RA,0.22,WeatherDisplay:10.37,2013-03-07 00:42:00,
2013-03-06 16:52:00,46.0,41.8,29.60,South,174,0.0,2.0,85,0.00,-RA,-RA,0.22,WeatherDisplay:10.37,2013-03-07 00:52:00,
2013-03-06 17:02:00,45.9,41.6,29.60,SSE,156,0.0,2.0,85,0.00,-RA,-RA,0.22,WeatherDisplay:10.37,2013-03-07 01:02:00,
2013-03-06 17:08:00,45.7,41.4,29.61,South,191,0.0,2.0,85,0.00,-RA,-RA,0.22,WeatherDisplay:10.37,2013-03-07 01:08:00,
2013-03-06 17:17:00,45.5,41.3,29.61,SW,231,0.0,1.0,85,0.00,-RA,-RA,0.22,WeatherDisplay:10.37,2013-03-07 01:17:00,
2013-03-06 17:22:00,45.3,41.1,29.61,SSW,203,0.0,1.0,85,0.00,-RA,-RA,0.22,WeatherDisplay:10.37,2013-03-07 01:22:00,
2013-03-06 17:32:00,45.1,40.9,29.62,SW,220,0.0,0.0,85,0.00,-RA,-RA,0.25,WeatherDisplay:10.37,2013-03-07 01:32:00,
2013-03-06 17:42:00,45.0,41.0,29.62,WSW,237,0.0,0.0,86,0.00,-RA,-RA,0.25,WeatherDisplay:10.37,2013-03-07 01:42:00,
2013-03-06 17:52:00,45.0,41.0,29.63,SSW,209,0.0,2.0,86,0.00,-RA,-RA,0.25,WeatherDisplay:10.37,2013-03-07 01:52:00,
2013-03-06 18:02:00,45.0,41.0,29.63,South,178,0.0,0.0,86,0.00,-RA,-RA,0.25,WeatherDisplay:10.37,2013-03-07 02:02:00,
2013-03-06 18:08:00,45.0,41.0,29.64,South,174,0.0,0.0,86,0.03,-RA,-RA,0.28,WeatherDisplay:10.37,2013-03-07 02:08:00,
2013-03-06 18:17:00,45.0,41.0,29.64,SW,224,0.0,0.0,86,0.00,-RA,-RA,0.28,WeatherDisplay:10.37,2013-03-07 02:17:00,
2013-03-06 18:22:00,44.8,40.8,29.64,SSW,197,0.0,1.0,86,0.00,-RA,-RA,0.28,WeatherDisplay:10.37,2013-03-07 02:22:00,
2013-03-06 18:32:00,44.8,40.8,29.65,SSE,165,0.0,0.0,86,0.03,-RA,-RA,0.30,WeatherDisplay:10.37,2013-03-07 02:32:00,
2013-03-06 18:42:00,44.6,40.7,29.65,South,182,0.0,0.0,86,0.00,-RA,-RA,0.30,WeatherDisplay:10.37,2013-03-07 02:42:00,
2013-03-06 18:52:00,44.4,40.5,29.66,SW,219,0.0,0.0,86,0.00,-RA,-RA,0.30,WeatherDisplay:10.37,2013-03-07 02:52:00,
2013-03-06 19:02:00,44.4,40.5,29.66,NE,43,0.0,0.0,86,0.00,-RA,-RA,0.30,WeatherDisplay:10.37,2013-03-07 03:02:00,
2013-03-06 19:08:00,44.2,40.3,29.67,North,353,0.0,0.0,86,0.00,-RA,-RA,0.30,WeatherDisplay:10.37,2013-03-07 03:08:00,
2013-03-06 19:17:00,44.1,40.1,29.67,NNW,338,0.0,0.0,86,0.00,-RA,-RA,0.33,WeatherDisplay:10.37,2013-03-07 03:17:00,
2013-03-06 19:22:00,43.9,40.0,29.67,NNW,338,0.0,0.0,86,0.00,-RA,-RA,0.33,WeatherDisplay:10.37,2013-03-07 03:22:00,
2013-03-06 19:32:00,43.7,39.8,29.67,NNW,338,0.0,0.0,86,0.00,-RA,-RA,0.33,WeatherDisplay:10.37,2013-03-07 03:32:00,
2013-03-06 19:42:00,43.7,39.8,29.67,NW,306,0.0,0.0,86,0.00,-RA,-RA,0.33,WeatherDisplay:10.37,2013-03-07 03:42:00,
2013-03-06 19:52:00,43.7,40.1,29.68,NW,316,0.0,1.0,87,0.00,-RA,-RA,0.36,WeatherDisplay:10.37,2013-03-07 03:52:00,
2013-03-06 20:02:00,43.5,39.9,29.68,NNW,348,0.0,1.0,87,0.00,-RA,-RA,0.36,WeatherDisplay:10.37,2013-03-07 04:02:00,
2013-03-06 20:07:00,43.3,39.7,29.68,NE,46,0.0,1.0,87,0.00,-RA,-RA,0.36,WeatherDisplay:10.37,2013-03-07 04:07:00,
2013-03-06 20:12:00,43.3,39.7,29.68,ENE,61,0.0,0.0,87,0.00,-RA,-RA,0.36,WeatherDisplay:10.37,2013-03-07 04:12:00,
2013-03-06 20:17:00,43.3,39.7,29.68,East,82,0.0,0.0,87,0.00,-RA,-RA,0.36,WeatherDisplay:10.37,2013-03-07 04:17:00,
2013-03-06 20:22:00,43.2,39.6,29.68,NE,36,0.0,0.0,87,0.03,-RA,-RA,0.39,WeatherDisplay:10.37,2013-03-07 04:22:00,
2013-03-06 20:32:00,43.2,39.6,29.69,NE,50,0.0,2.0,87,0.00,-RA,-RA,0.39,WeatherDisplay:10.37,2013-03-07 04:32:00,
2013-03-06 20:42:00,43.2,39.8,29.69,South,185,1.0,0.0,88,0.00,-RA,-RA,0.39,WeatherDisplay:10.37,2013-03-07 04:42:00,
2013-03-06 20:52:00,43.3,40.0,29.69,SSE,163,0.0,3.0,88,0.00,-RA,-RA,0.39,WeatherDisplay:10.37,2013-03-07 04:52:00,
2013-03-06 21:02:00,43.5,40.2,29.69,SSE,154,1.0,4.0,88,0.00,-RA,-RA,0.41,WeatherDisplay:10.37,2013-03-07 05:02:00,
2013-03-06 21:07:00,43.5,40.2,29.69,SSE,160,2.0,7.0,88,0.00,-RA,-RA,0.41,WeatherDisplay:10.37,2013-03-07 05:07:00,
2013-03-06 21:12:00,43.5,40.2,29.69,SSE,166,2.0,5.0,88,0.00,-RA,-RA,0.41,WeatherDisplay:10.37,2013-03-07 05:12:00,
2013-03-06 21:22:00,43.5,40.2,29.69,SE,140,2.0,3.0,88,0.00,-RA,-RA,0.41,WeatherDisplay:10.37,2013-03-07 05:22:00,
2013-03-06 21:32:00,43.5,40.2,29.71,SSE,155,2.0,6.0,88,0.00,-RA,-RA,0.41,WeatherDisplay:10.37,2013-03-07 05:32:00,
2013-03-06 21:42:00,43.5,40.2,29.71,SSE,164,2.0,6.0,88,0.00,-RA,-RA,0.41,WeatherDisplay:10.37,2013-03-07 05:42:00,
2013-03-06 21:52:00,43.5,40.2,29.72,SE,125,1.0,3.0,88,0.00,-RA,-RA,0.41,WeatherDisplay:10.37,2013-03-07 05:52:00,
2013-03-06 22:02:00,43.3,40.0,29.72,South,190,1.0,2.0,88,0.00,-RA,-RA,0.41,WeatherDisplay:10.37,2013-03-07 06:02:00,
2013-03-06 22:07:00,43.3,40.0,29.73,SSW,199,1.0,3.0,88,0.00,-RA,-RA,0.41,WeatherDisplay:10.37,2013-03-07 06:07:00,
2013-03-06 22:12:00,43.3,40.0,29.73,SW,221,1.0,3.0,88,0.00,-RA,-RA,0.41,WeatherDisplay:10.37,2013-03-07 06:12:00,
2013-03-06 22:22:00,43.3,40.0,29.73,South,188,1.0,1.0,88,0.00,-RA,-RA,0.41,WeatherDisplay:10.37,2013-03-07 06:22:00,
2013-03-06 22:27:00,43.3,40.0,29.73,South,174,0.0,2.0,88,0.00,-RA,-RA,0.41,WeatherDisplay:10.37,2013-03-07 06:27:00,
2013-03-06 22:32:00,43.3,40.0,29.73,South,179,1.0,1.0,88,0.00,-RA,-RA,0.41,WeatherDisplay:10.37,2013-03-07 06:32:00,
2013-03-06 22:42:00,43.3,40.0,29.73,South,187,1.0,2.0,88,0.00,-RA,-RA,0.41,WeatherDisplay:10.37,2013-03-07 06:42:00,
2013-03-06 22:52:00,43.2,39.8,29.74,South,179,0.0,2.0,88,0.03,-RA,-RA,0.44,WeatherDisplay:10.37,2013-03-07 06:52:00,
2013-03-06 23:02:00,43.2,39.8,29.74,SW,232,0.0,0.0,88,0.00,-RA,-RA,0.44,WeatherDisplay:10.37,2013-03-07 07:02:00,
2013-03-06 23:07:00,43.2,39.8,29.75,SSW,200,0.0,3.0,88,0.00,-RA,-RA,0.44,WeatherDisplay:10.37,2013-03-07 07:07:00,
2013-03-06 23:12:00,43.2,39.8,29.75,South,180,0.0,2.0,88,0.00,-RA,-RA,0.44,WeatherDisplay:10.37,2013-03-07 07:12:00,
2013-03-06 23:22:00,43.3,40.0,29.75,WNW,285,0.0,4.0,88,0.00,-RA,-RA,0.44,WeatherDisplay:10.37,2013-03-07 07:22:00,
2013-03-06 23:32:00,43.3,40.0,29.75,SW,236,0.0,1.0,88,0.00,-RA,-RA,0.44,WeatherDisplay:10.37,2013-03-07 07:32:00,
2013-03-06 23:42:00,43.3,40.0,29.75,WSW,248,0.0,0.0,88,0.00,-RA,-RA,0.44,WeatherDisplay:10.37,2013-03-07 07:42:00,
2013-03-06 23:52:00,43.3,40.0,29.76,SW,221,0.0,2.0,88,0.03,-RA,-RA,0.47,WeatherDisplay:10.37,2013-03-07 07:52:00,